GW2278 Weather Reports


Display with metric or nautical units.
time (UTC)temp
F
wind
direction
speed
MPH
gust
MPH
rain 1hr
in
rain 24hr
in
rain mn
in
humidity
%
barometer
mb
20260506182550 57 173 5.0 8.0 0.07 0.11 0.11 98 1006.7
20260506182047 57 162 5.0 7.0 0.07 0.11 0.11 98 1006.7
20260506181545 57 136 3.0 11.0 0.07 0.10 0.10 97 1006.9
20260506181041 57 129 5.0 10.0 0.09 0.09 0.09 97 1007.0
20260506180538 57 139 8.0 11.0 0.12 0.09 0.09 97 1007.2
20260506180035 58 119 4.0 18.0 0.17 0.08 0.08 96 1007.1
20260506175531 58 104 2.0 8.0 0.17 0.06 0.06 96 1007.4
20260506175028 59 162 2.0 13.0 0.12 0.04 0.04 95 1007.4
20260506174527 59 153 2.0 8.0 0.07 0.03 0.03 94 1007.5
20260506174022 59 196 4.0 9.0 0.05 0.02 0.02 94 1007.6
20260506173520 59 162 3.0 9.0 0.05 0.02 0.02 93 1008.0
20260506173017 60 183 3.0 8.0 0.05 0.02 0.02 92 1007.9
20260506172514 60 188 7.0 10.0 0.05 0.01 0.01 91 1007.9
20260506172010 60 183 6.0 15.0 0.05 0.01 0.01 90 1007.8
20260506171508 61 228 15.0 15.0 0.02 0.00 0.00 87 1008.1
20260506171005 61 180 4.0 10.0 0.00 0.00 0.00 86 1008.1
20260506170501 62 216 5.0 13.0 0.00 0.00 0.00 84 1008.2
20260506165954 63 200 7.0 12.0 0.00 0.00 0.00 82 1008.1
20260506165452 63 177 7.0 19.0 0.00 0.00 0.00 80 1008.2
20260506164948 64 204 6.0 10.0 0.00 0.00 0.00 79 1007.8
20260506164445 65 207 7.0 16.0 0.00 0.00 0.00 77 1008.0
20260506163943 65 205 9.0 18.0 0.00 0.00 0.00 76 1007.9
20260506163438 65 219 4.0 20.0 0.00 0.00 0.00 76 1008.0
20260506162932 66 166 7.0 14.0 0.00 0.00 0.00 76 1007.6
20260506162430 66 216 3.0 10.0 0.00 0.00 0.00 76 1007.8
20260506161922 65 176 7.0 15.0 0.00 0.00 0.00 76 1007.9
20260506161420 66 176 9.0 13.0 0.00 0.00 0.00 75 1008.0
20260506160917 66 196 7.0 13.0 0.00 0.00 0.00 74 1008.2
20260506160414 66 246 7.0 15.0 0.00 0.00 0.00 74 1008.2
20260506155912 66 131 5.0 11.0 0.00 0.00 0.00 74 1008.3
20260506155409 66 262 8.0 21.0 0.00 0.00 0.00 74 1008.3
20260506153531 67 193 6.0 9.0 0.00 0.00 0.00 72 1008.2
20260506153028 67 224 7.0 17.0 0.00 0.00 0.00 73 1008.1
20260506152525 67 182 18.0 24.0 0.00 0.00 0.00 71 1008.2
20260506152023 67 226 6.0 16.0 0.00 0.00 0.00 73 1008.2
20260506151521 67 225 7.0 11.0 0.00 0.00 0.00 72 1008.3
20260506151018 67 190 3.0 20.0 0.00 0.00 0.00 73 1008.4
20260506150514 68 210 9.0 12.0 0.00 0.00 0.00 71 1008.3
20260506150011 68 155 9.0 11.0 0.00 0.00 0.00 71 1008.3
20260506145507 68 212 5.0 9.0 0.00 0.00 0.00 72 1008.6
20260506145005 67 212 10.0 15.0 0.00 0.00 0.00 72 1008.7
20260506144502 68 201 10.0 20.0 0.00 0.00 0.00 70 1008.5
20260506143959 68 218 6.0 14.0 0.00 0.00 0.00 71 1008.4
20260506143456 68 262 6.0 12.0 0.00 0.00 0.00 71 1008.5
20260506142955 68 214 10.0 11.0 0.00 0.00 0.00 72 1008.6
20260506142452 67 211 7.0 16.0 0.00 0.00 0.00 73 1008.6
20260506141950 67 248 9.0 13.0 0.00 0.00 0.00 74 1008.7
20260506141448 66 105 2.0 14.0 0.00 0.00 0.00 76 1008.8
20260506140946 65 245 2.0 13.0 0.00 0.00 0.00 77 1008.8
20260506140443 65 231 3.0 11.0 0.00 0.00 0.00 77 1008.7
20260506135939 64 191 7.0 13.0 0.00 0.00 0.00 78 1008.7
20260506135437 64 200 5.0 15.0 0.00 0.00 0.00 79 1008.7
20260506134933 64 234 4.0 11.0 0.00 0.00 0.00 79 1008.3
20260506134429 64 225 7.0 13.0 0.00 0.00 0.00 79 1008.4
20260506133926 64 136 5.0 13.0 0.00 0.00 0.00 80 1008.4
20260506133423 64 214 4.0 11.0 0.00 0.00 0.00 80 1008.4
20260506132920 64 282 2.0 15.0 0.00 0.00 0.00 81 1008.6
20260506132417 63 191 9.0 16.0 0.00 0.00 0.00 81 1008.4
20260506131914 63 210 5.0 19.0 0.00 0.00 0.00 82 1008.2
20260506131411 62 232 5.0 7.0 0.00 0.00 0.00 83 1008.7
20260506130908 62 223 6.0 20.0 0.00 0.00 0.00 84 1008.6
20260506130404 62 191 4.0 15.0 0.00 0.00 0.00 85 1008.9
20260506125902 61 212 5.0 13.0 0.00 0.00 0.00 85 1009.0
20260506125400 61 155 5.0 14.0 0.00 0.00 0.00 86 1009.3
20260506124858 61 223 9.0 16.0 0.00 0.00 0.00 86 1009.0
20260506124355 60 219 5.0 14.0 0.00 0.00 0.00 87 1009.2
20260506123853 60 183 4.0 10.0 0.00 0.00 0.00 87 1009.2
20260506123351 60 201 3.0 8.0 0.00 0.00 0.00 88 1009.3
20260506122848 60 174 7.0 9.0 0.00 0.00 0.00 88 1009.4
20260506122344 59 210 4.0 9.0 0.00 0.00 0.00 89 1009.2
20260506121843 59 141 4.0 9.0 0.00 0.00 0.00 89 1009.3
20260506121340 59 166 4.0 6.0 0.00 0.00 0.00 89 1009.3
20260506120837 59 153 5.0 11.0 0.00 0.00 0.00 90 1009.4
20260506120334 59 147 5.0 11.0 0.00 0.00 0.00 90 1009.2
20260506115832 59 247 3.0 6.0 0.00 0.00 0.00 90 1009.2
20260506115330 59 173 5.0 8.0 0.00 0.00 0.00 90 1009.3
20260506114828 59 124 8.0 9.0 0.00 0.00 0.00 90 1009.2
20260506114325 59 193 7.0 10.0 0.00 0.00 0.00 91 1009.1
20260506113823 59 181 2.0 9.0 0.00 0.00 0.00 91 1009.0
20260506113321 58 183 5.0 13.0 0.00 0.00 0.00 91 1008.8
20260506112817 58 215 10.0 15.0 0.00 0.00 0.00 91 1009.1
20260506112315 58 187 3.0 9.0 0.00 0.00 0.00 92 1009.4
20260506111812 58 168 1.0 12.0 0.00 0.00 0.00 92 1009.3
20260506111310 57 170 5.0 11.0 0.00 0.00 0.00 93 1009.4
20260506110807 57 192 5.0 11.0 0.00 0.00 0.00 93 1009.3
20260506110304 57 154 2.0 8.0 0.00 0.00 0.00 94 1009.6
20260506105800 56 107 3.0 10.0 0.00 0.00 0.00 94 1009.3
20260506105257 56 113 3.0 9.0 0.00 0.00 0.00 94 1009.4
20260506104755 56 187 5.0 9.0 0.00 0.00 0.00 94 1009.3
20260506104253 56 217 3.0 11.0 0.00 0.00 0.00 94 1009.3
20260506103750 56 147 3.0 14.0 0.00 0.00 0.00 94 1009.2
20260506103247 56 169 8.0 11.0 0.00 0.00 0.00 94 1009.2
20260506102744 56 202 4.0 9.0 0.00 0.00 0.00 94 1009.1
20260506102242 56 155 5.0 10.0 0.00 0.00 0.00 94 1009.4
20260506101739 56 216 2.0 13.0 0.00 0.00 0.00 94 1009.4
20260506101235 56 217 3.0 6.0 0.00 0.00 0.00 94 1009.1
20260506100734 56 199 4.0 8.0 0.00 0.00 0.00 94 1009.1
20260506100231 56 101 5.0 6.0 0.00 0.00 0.00 94 1009.2
20260506095730 56 141 4.0 10.0 0.00 0.00 0.00 94 1009.2
20260506095226 56 131 2.0 6.0 0.00 0.00 0.00 94 1009.0
20260506094723 56 144 5.0 5.0 0.00 0.00 0.00 93 1009.1
20260506094221 56 183 2.0 11.0 0.00 0.00 0.00 93 1009.3
20260506093720 56 167 5.0 11.0 0.00 0.00 0.00 93 1009.1
20260506093216 56 176 4.0 8.0 0.00 0.00 0.00 93 1009.2
20260506092714 56 196 7.0 7.0 0.00 0.00 0.00 93 1009.1
20260506092212 56 178 8.0 8.0 0.00 0.00 0.00 93 1009.0
20260506091709 56 170 3.0 8.0 0.00 0.00 0.00 93 1009.2
20260506091206 56 216 3.0 9.0 0.00 0.00 0.00 93 1009.2
20260506090704 56 180 6.0 7.0 0.00 0.00 0.00 93 1009.0
20260506090201 56 186 5.0 9.0 0.00 0.00 0.00 92 1009.1
20260506085658 56 142 4.0 9.0 0.00 0.00 0.00 92 1009.3
20260506085153 56 122 3.0 6.0 0.00 0.00 0.00 92 1009.3
20260506084650 56 203 4.0 7.0 0.00 0.00 0.00 92 1009.3
20260506084147 56 201 4.0 11.0 0.00 0.00 0.00 92 1009.5
20260506083644 56 185 2.0 9.0 0.00 0.00 0.00 92 1009.1
20260506083142 56 212 10.0 14.0 0.00 0.00 0.00 92 1009.3
20260506082638 56 188 6.0 9.0 0.00 0.00 0.00 92 1009.3
20260506082134 56 206 2.0 3.0 0.00 0.00 0.00 92 1009.3
20260506081632 56 104 3.0 6.0 0.00 0.00 0.00 91 1009.0
20260506081130 56 77 2.0 4.0 0.00 0.00 0.00 91 1009.3
20260506080627 56 317 1.0 4.0 0.00 0.00 0.00 91 1009.4
20260506080123 56 132 4.0 7.0 0.00 0.00 0.00 91 1009.4
20260506073107 57 206 4.0 7.0 0.00 0.00 0.00 89 1009.3
20260506072604 57 202 5.0 14.0 0.00 0.00 0.00 89 1009.5
20260506072102 57 202 7.0 10.0 0.00 0.00 0.00 89 1009.2
20260506071559 57 191 10.0 11.0 0.00 0.00 0.00 89 1009.5
20260506071057 57 215 3.0 8.0 0.00 0.00 0.00 88 1009.3
20260506070554 57 180 7.0 11.0 0.00 0.00 0.00 88 1009.5
20260506062028 58 180 7.0 11.0 0.00 0.00 0.00 86 1009.2
20260506061523 58 190 3.0 10.0 0.00 0.00 0.00 86 1009.3
20260506061021 58 108 2.0 11.0 0.00 0.00 0.00 85 1009.5
20260506060520 58 194 6.0 9.0 0.00 0.00 0.00 85 1009.3
20260506050948 60 231 3.0 12.0 0.00 0.00 0.00 82 1009.6
20260506050446 60 236 6.0 16.0 0.00 0.00 0.00 81 1009.5
20260506044936 61 264 6.0 13.0 0.00 0.00 0.00 80 1009.7
20260506044435 61 228 5.0 11.0 0.00 0.00 0.00 80 1009.8
20260506043931 61 237 6.0 8.0 0.00 0.00 0.00 79 1009.7
20260506043429 61 238 7.0 16.0 0.00 0.00 0.00 79 1009.8
20260506042926 61 176 9.0 16.0 0.00 0.00 0.00 78 1009.7
20260506042426 61 205 4.0 9.0 0.00 0.00 0.00 78 1009.7
20260506041923 61 189 6.0 18.0 0.00 0.00 0.00 77 1009.8
20260506041421 61 223 6.0 17.0 0.00 0.00 0.00 77 1009.8
20260506040918 62 189 11.0 22.0 0.00 0.00 0.00 76 1009.7
20260506040415 62 220 5.0 20.0 0.00 0.00 0.00 76 1009.6
20260506035911 62 190 5.0 15.0 0.00 0.00 0.00 75 1009.8
20260506035409 61 197 5.0 14.0 0.00 0.00 0.00 75 1009.8
20260506034905 61 235 11.0 14.0 0.00 0.00 0.00 75 1009.9
20260506034403 61 245 5.0 18.0 0.00 0.00 0.00 74 1009.8
20260506033859 62 178 4.0 12.0 0.00 0.00 0.00 74 1009.6
20260506033357 62 221 3.0 15.0 0.00 0.00 0.00 74 1009.8
20260506032854 61 215 10.0 13.0 0.00 0.00 0.00 74 1009.9
20260506032350 62 151 4.0 15.0 0.00 0.00 0.00 73 1009.6
20260506031847 62 261 6.0 16.0 0.00 0.00 0.00 73 1009.6
20260506031345 62 195 16.0 16.0 0.00 0.00 0.00 73 1009.5
20260506030842 61 220 5.0 11.0 0.00 0.00 0.00 73 1009.7
20260506030340 62 217 5.0 13.0 0.00 0.00 0.00 73 1009.8
20260506025837 61 200 9.0 12.0 0.00 0.00 0.00 73 1009.6
20260506025333 61 188 6.0 17.0 0.00 0.00 0.00 73 1009.6
20260506024830 61 242 4.0 15.0 0.00 0.00 0.00 73 1009.7
20260506024327 61 207 4.0 11.0 0.00 0.00 0.00 73 1009.4
20260506023823 61 196 5.0 10.0 0.00 0.00 0.00 73 1009.5
20260506023320 61 185 8.0 16.0 0.00 0.00 0.00 73 1009.6
20260506022817 61 192 6.0 8.0 0.00 0.00 0.00 73 1009.6
20260506022315 61 177 4.0 13.0 0.00 0.00 0.00 72 1009.4
20260506021813 61 222 4.0 11.0 0.00 0.00 0.00 73 1009.6
20260506021309 61 254 3.0 6.0 0.00 0.00 0.00 73 1009.6
20260506020806 61 227 3.0 14.0 0.00 0.00 0.00 72 1009.5
20260506020304 61 189 4.0 10.0 0.00 0.00 0.00 72 1009.7
20260506015801 61 177 9.0 15.0 0.00 0.00 0.00 72 1009.5
20260506015258 61 226 6.0 14.0 0.00 0.00 0.00 72 1009.4
20260506014755 61 139 7.0 14.0 0.00 0.00 0.00 72 1009.4
20260506014252 61 185 9.0 12.0 0.00 0.00 0.00 72 1009.5
20260506013749 61 248 4.0 12.0 0.00 0.00 0.00 72 1009.6
20260506013246 61 232 1.0 5.0 0.00 0.00 0.00 71 1009.4
20260506012742 61 223 11.0 11.0 0.00 0.00 0.00 71 1009.3
20260506012239 62 173 2.0 10.0 0.00 0.00 0.00 70 1009.2
20260506011737 62 204 5.0 17.0 0.00 0.00 0.00 70 1009.4
20260506011233 62 220 3.0 7.0 0.00 0.00 0.00 70 1009.2
20260506010731 62 202 5.0 13.0 0.00 0.00 0.00 69 1008.9
20260506010228 62 226 6.0 11.0 0.00 0.00 0.00 68 1009.2
20260506005725 62 178 7.0 9.0 0.00 0.00 0.00 69 1009.0
20260506005222 62 233 7.0 7.0 0.00 0.00 0.00 68 1008.9
20260506004718 62 180 0.0 9.0 0.00 0.00 0.00 69 1009.0
20260506004216 63 225 3.0 16.0 0.00 0.00 0.00 68 1008.7
20260506003711 62 171 7.0 9.0 0.00 0.00 0.00 69 1008.9
20260506003208 62 197 4.0 11.0 0.00 0.00 0.00 69 1008.7
20260506002704 63 180 5.0 11.0 0.00 0.00 0.00 69 1008.7
20260506002200 63 199 7.0 17.0 0.00 0.00 0.00 68 1008.6
20260506001656 63 230 4.0 17.0 0.00 0.00 0.00 68 1008.5
20260506001154 63 194 5.0 13.0 0.00 0.00 0.00 67 1008.4
20260506000651 63 250 4.0 17.0 0.00 0.00 0.00 67 1008.3
20260506000148 64 211 7.0 11.0 0.00 0.00 0.00 67 1008.1
20260505235646 64 225 3.0 15.0 0.00 0.00 0.00 67 1008.0
20260505235143 64 223 3.0 15.0 0.00 0.00 0.00 67 1008.1
20260505234640 64 190 5.0 13.0 0.00 0.00 0.00 66 1008.0
20260505234137 65 177 6.0 11.0 0.00 0.00 0.00 66 1007.8
20260505233634 65 198 10.0 18.0 0.00 0.00 0.00 65 1007.8
20260505233131 65 226 4.0 10.0 0.00 0.00 0.00 64 1007.6
20260505232629 65 161 7.0 15.0 0.00 0.00 0.00 64 1007.6
20260505232126 66 188 7.0 14.0 0.00 0.00 0.00 63 1007.8
20260505231623 66 172 5.0 16.0 0.00 0.00 0.00 63 1007.4
20260505231122 66 220 12.0 19.0 0.00 0.00 0.00 62 1007.5
20260505230620 67 163 5.0 11.0 0.00 0.00 0.00 62 1007.5
20260505230115 67 205 4.0 16.0 0.00 0.00 0.00 62 1007.6
20260505225612 67 206 5.0 13.0 0.00 0.00 0.00 61 1007.2
20260505225108 67 216 3.0 18.0 0.00 0.00 0.00 61 1007.3
20260505224605 67 174 8.0 17.0 0.00 0.00 0.00 61 1007.2
20260505224102 68 208 5.0 20.0 0.00 0.00 0.00 61 1007.1
20260505223559 68 190 4.0 8.0 0.00 0.00 0.00 60 1007.1
20260505223055 68 222 12.0 15.0 0.00 0.00 0.00 60 1007.1
20260505222552 68 255 6.0 22.0 0.00 0.00 0.00 59 1007.0
20260505222048 69 220 7.0 16.0 0.00 0.00 0.00 59 1007.1
20260505221546 69 209 7.0 17.0 0.00 0.00 0.00 58 1007.2
20260505221042 69 181 7.0 15.0 0.00 0.00 0.00 57 1007.1
20260505220539 70 154 9.0 15.0 0.00 0.00 0.00 57 1007.1
20260505220037 70 235 4.0 15.0 0.00 0.00 0.00 57 1007.4
20260505215535 70 128 7.0 13.0 0.00 0.00 0.00 56 1007.4
20260505215032 70 240 9.0 16.0 0.00 0.00 0.00 56 1007.3
20260505214530 71 201 6.0 17.0 0.00 0.00 0.00 55 1007.2
20260505214027 71 227 3.0 11.0 0.00 0.00 0.00 55 1007.2
20260505213525 72 214 7.0 7.0 0.00 0.00 0.00 55 1007.2
20260505213021 72 179 5.0 10.0 0.00 0.00 0.00 55 1007.1
20260505212517 71 178 4.0 14.0 0.00 0.00 0.00 55 1007.2
20260505212014 71 143 5.0 14.0 0.00 0.00 0.00 55 1007.2
20260505211512 72 196 2.0 11.0 0.00 0.00 0.00 55 1007.3
20260505211008 73 224 6.0 15.0 0.00 0.00 0.00 54 1007.1
20260505210505 73 224 3.0 9.0 0.00 0.00 0.00 55 1007.1
20260505210002 74 203 9.0 13.0 0.00 0.00 0.00 52 1007.1
20260505205500 74 174 5.0 13.0 0.00 0.00 0.00 53 1007.0
20260505204956 73 267 6.0 21.0 0.00 0.00 0.00 52 1006.9
20260505204455 74 211 3.0 13.0 0.00 0.00 0.00 53 1007.1
20260505203951 74 183 12.0 19.0 0.00 0.00 0.00 53 1007.0
20260505203448 74 207 7.0 13.0 0.00 0.00 0.00 53 1007.0
20260505202944 74 205 6.0 19.0 0.00 0.00 0.00 52 1007.2
20260505202441 75 132 6.0 14.0 0.00 0.00 0.00 50 1007.2
20260505201937 75 200 6.0 23.0 0.00 0.00 0.00 50 1007.0
20260505201434 74 175 14.0 27.0 0.00 0.00 0.00 50 1007.2
20260505200932 75 217 5.0 16.0 0.00 0.00 0.00 50 1007.0
20260505200429 75 179 12.0 25.0 0.00 0.00 0.00 49 1007.0
20260505195925 75 207 6.0 19.0 0.00 0.00 0.00 50 1007.0
20260505195422 75 174 15.0 15.0 0.00 0.00 0.00 50 1006.8
20260505194920 75 179 9.0 22.0 0.00 0.00 0.00 50 1006.9
20260505194417 75 201 10.0 14.0 0.00 0.00 0.00 51 1007.2
20260505193917 76 213 10.0 20.0 0.00 0.00 0.00 50 1007.3
20260505193415 77 201 5.0 23.0 0.00 0.00 0.00 49 1007.2
20260505192912 79 186 7.0 8.0 0.00 0.00 0.00 46 1007.2
20260505192410 77 208 7.0 12.0 0.00 0.00 0.00 48 1007.3
20260505191908 76 222 5.0 17.0 0.00 0.00 0.00 48 1007.1
20260505191406 77 207 7.0 21.0 0.00 0.00 0.00 47 1007.2
20260505190903 77 186 12.0 20.0 0.00 0.00 0.00 46 1007.1
20260505190358 77 209 17.0 18.0 0.00 0.00 0.00 46 1007.2
20260505185853 77 245 3.0 29.0 0.00 0.00 0.00 46 1007.3
20260505185350 77 202 12.0 16.0 0.00 0.00 0.00 46 1007.4
20260505184847 78 208 9.0 23.0 0.00 0.00 0.00 45 1007.3
20260505184344 78 189 10.0 19.0 0.00 0.00 0.00 45 1007.4
20260505183841 78 220 8.0 17.0 0.00 0.00 0.00 46 1007.3
20260505183337 77 233 9.0 16.0 0.00 0.00 0.00 46 1007.4